Voltar ao catálogo

STARLINK-4390

AtivoComunicaçõesPO
NORAD 53653·PAYLOAD·🇺🇸 United States

Lançado Aug 31, 2022 de Vandenberg Space Force Base

Loading…

Próximas Passagens (próximas 24 horas)

TLE

AtualizadoSource: CelesTrak SupGP

Época: Sep 15, 2026, 02:09 UTC

1 53653C 22105F   26258.09006944  .00766000  00000+0  12678-2 0  2589
2 53653  97.5866 148.6590 0002845 163.9115 302.4320 16.02668855    15

Acompanhe STARLINK-4390 em tempo real com AllMySat

Download on the App Store